[ hide orbit diagram ]
For accurate long-term ephemerides, please instead use our Horizons system.This orbit viewer was implemented using two-body methods, and hence should not be used for determining accurate long-term trajectories (over several years or decades) or planetary encounter circumstances.
Orbital Elements at Epoch 2459200.5 (2020-Dec-17.0) TDB
Reference: JPL 12 (heliocentric ecliptic J2000)
Element | Value | Uncertainty (1-sigma) | Units |
e | .1749885952122527 | 4.2515e-07 | |
a | 2.529303485297256 | 5.9229e-08 | au |
q | 2.086704221539635 | 1.1208e-06 | au |
i | 3.714420997165991 | 4.933e-05 | deg |
node | 82.05362672780372 | 0.00038868 | deg |
peri | 313.3407731052367 | 0.00061896 | deg |
M | 134.8391508948751 | 0.00047648 | deg |
tp | 2458650.182467925405 (2019-Jun-15.68246793) | 0.0019623 | TDB |
period | 1469.264009985574 4.02 | 5.1609e-05 1.413e-07 | d yr |
n | .2450206345172333 | 8.6066e-09 | deg/d |
Q | 2.971902749054878 | 6.9594e-08 | au |
|
| | Orbit Determination Parameters
Additional Information
|
[ show covariance matrix ]
Physical Parameter Table
Parameter |
Symbol |
Value |
Units |
Sigma |
Reference |
Notes |
absolute magnitude |
H |
17.8 |
|
n/a |
MPO456154 |
|
|
452472 (2004 AY14) Discovered 2004-Jan-15 by Spacewatch at Kitt Peak |
Reference: | Last Updated: 2016-01-04 |
|
Alternate Designations
2004 AY14 = 1996 AD15 = 2008 CD52 |
|
|